Lapse_Rate
4.4 4.8 4.8 4.9 4.6 3.5 3.2 2.7 2.1 0.8 0.6 0.2 0.2 -0.3 -0.9 -1.7 -1.9 4.9 7.3 6.1 6.4 3.0 2.7 9.6 9.6 9.4 9.3 8.6 8.7 8.6 6.5 6.5 6.5 6.5 6.5 7.1 6.6 7.7 8.2 7.6 7.8 8.1 8.0 8.2 5.2
3.4 3.5 4.5 4.6 4.8 3.9 2.7 2.5 2.2 1.6 0.6 0.3 -0.2 -0.4 -0.6 -1.6 2.2 8.0 3.6 2.6 1.9 2.2 8.5 9.0 8.5 8.8 8.2 7.9 8.0 6.8 6.5 6.5 6.5 6.5 6.5 6.8 7.0 7.2 7.0 7.1 7.2 7.8 8.4 8.0 6.5
3.3 2.8 3.5 4.0 4.0 3.7 3.4 2.0 2.1 1.7 1.2 0.3 -0.1 -0.1 -0.8 -1.0 6.7 8.6 1.1 1.6 1.1 2.4 9.7 9.5 9.1 8.5 7.5 7.8 7.4 7.0 6.5 6.5 6.8 7.3 7.4 6.9 6.9 7.6 6.9 6.5 6.9 6.9 7.2 6.9 6.9
2.5 2.6 2.8 3.3 3.9 3.3 3.4 2.8 1.9 1.6 1.4 0.7 0.2 0.0 -0.4 4.1 6.5 9.0 1.6 0.8 0.8 6.4 9.5 9.0 8.5 7.5 6.7 6.5 7.5 6.5 6.9 7.0 7.1 7.4 7.2 6.5 7.2 6.9 7.3 7.1 7.7 8.3 7.4 6.6 6.4
2.3 2.0 2.6 2.6 3.2 3.5 3.5 3.0 2.2 1.8 1.4 0.9 0.4 0.3 3.3 8.2 8.2 6.1 0.8 0.8 5.2 7.6 9.0 8.5 7.8 7.6 6.5 6.7 7.0 6.5 6.5 7.2 7.4 7.4 7.4 7.4 6.9 6.7 7.0 8.0 8.3 7.5 6.9 6.8 6.5
2.1 2.2 2.1 2.5 2.3 2.7 3.1 3.4 2.6 2.1 1.6 1.0 0.9 -0.3 7.7 7.1 9.8 8.8 8.3 6.3 9.5 9.4 9.0 8.9 8.1 8.2 7.3 6.9 6.6 7.1 7.0 6.8 7.3 7.2 7.4 6.7 6.8 7.2 7.4 8.2 8.0 8.0 7.5 6.2 6.4
2.4 2.5 2.4 2.0 1.9 1.9 2.1 2.8 3.1 2.8 1.9 1.4 1.3 4.5 8.2 7.7 10.0 9.8 8.8 9.6 9.9 9.5 8.7 9.1 9.0 8.1 7.8 6.5 7.6 7.2 6.5 6.5 6.7 6.9 6.5 7.3 6.5 6.5 7.8 8.0 7.7 7.8 8.0 8.1 7.9
3.7 2.8 2.2 2.1 1.8 1.6 1.8 2.4 2.6 2.9 1.9 1.6 1.5 6.4 7.8 9.7 9.5 9.8 9.9 9.6 9.9 9.9 9.3 9.4 9.3 8.3 7.8 7.9 7.1 6.5 6.5 6.5 6.5 6.5 6.9 6.9 6.5 6.5 7.9 7.7 7.4 7.8 8.0 8.2 8.2
6.0 4.0 2.7 2.0 1.7 1.7 1.4 1.9 2.0 2.3 2.1 1.7 5.1 8.0 7.4 5.8 7.8 9.3 9.9 9.0 9.3 9.4 9.4 9.4 8.9 7.8 7.5 6.5 6.5 6.5 6.5 6.5 6.5 6.6 6.5 6.5 6.5 6.5 7.8 7.5 7.3 7.6 7.9 8.1 8.4
8.2 6.7 4.4 2.6 1.8 1.5 1.6 2.1 4.4 1.5 3.7 6.4 9.1 7.7 8.2 7.9 9.0 9.4 9.8 9.5 8.7 8.6 8.2 8.1 7.8 6.5 6.5 6.5 6.5 6.5 6.5 6.5 6.5 6.5 6.5 6.5 6.5 6.5 7.4 7.3 7.3 7.5 7.8 8.0 8.1
8.0 8.3 7.3 3.8 2.3 1.8 2.4 9.7 8.5 8.2 8.9 7.9 7.8 7.7 8.1 9.1 9.4 8.9 9.5 9.0 8.7 8.0 6.5 7.3 6.5 6.5 6.5 6.5 6.5 6.5 6.5 6.5 6.5 6.5 6.5 6.5 6.5 6.5 7.0 7.2 7.1 7.4 7.6 7.9 8.1
7.0 8.1 8.2 7.3 3.9 2.2 4.1 8.7 8.7 8.9 7.2 8.6 8.6 8.5 8.8 9.0 7.6 8.5 9.4 7.7 7.3 6.5 6.6 6.5 6.5 6.5 6.5 6.5 6.5 6.5 6.5 6.5 6.5 6.5 6.5 6.5 6.5 6.5 6.5 6.8 7.2 7.3 7.5 7.7 8.1
6.6 7.5 8.0 8.1 6.0 4.2 8.4 9.1 9.9 9.7 7.2 7.6 8.4 8.3 8.3 8.8 7.5 7.7 8.5 7.9 6.7 6.5 6.5 6.5 6.5 6.5 6.5 6.5 6.5 6.5 6.5 6.5 6.5 6.5 6.5 6.5 6.5 6.5 6.5 7.0 7.4 7.6 7.8 8.0 8.0
6.6 7.0 7.7 7.8 5.8 9.5 9.0 10.0 9.8 9.2 6.5 6.5 6.9 7.8 8.5 8.4 6.9 8.8 8.9 8.0 6.7 6.5 6.5 6.5 6.6 6.5 6.5 6.5 6.5 6.5 6.5 6.5 6.5 6.5 6.5 6.5 6.5 6.5 6.5 6.5 6.5 7.2 7.5 7.8 8.1
6.8 7.0 7.6 7.9 7.9 8.9 9.3 9.8 9.8 8.9 6.5 6.5 6.8 8.9 8.4 7.4 7.3 7.6 9.0 8.0 6.5 6.5 6.5 6.5 6.5 6.5 6.5 6.5 6.5 6.5 6.5 6.5 6.5 6.5 6.5 6.5 6.5 6.5 6.5 6.5 6.5 6.7 7.4 7.8 8.1
7.4 6.4 7.3 8.3 9.0 7.2 9.1 9.4 9.1 6.5 6.5 6.5 6.9 6.6 6.6 7.2 7.1 7.7 7.7 8.3 7.9 6.5 6.5 6.5 7.2 6.5 6.5 6.5 6.5 6.5 6.5 6.5 6.5 6.5 6.5 6.5 6.5 6.5 6.5 6.5 6.5 6.7 7.4 7.7 8.1
7.3 6.8 7.7 9.5 8.8 9.5 7.9 7.9 6.5 6.5 6.5 6.5 6.5 6.5 6.5 6.5 6.5 6.5 6.5 6.5 6.5 6.5 6.5 6.5 6.5 6.5 6.7 6.5 6.5 6.5 6.5 6.5 6.5 6.5 6.5 6.5 6.5 6.5 6.5 6.5 6.5 6.5 7.1 7.7 8.0
7.2 7.0 7.1 9.2 9.1 7.6 6.4 6.6 6.5 6.5 6.5 6.5 6.5 6.5 6.5 6.5 6.5 6.5 6.5 6.5 6.5 6.5 6.5 6.5 6.5 6.5 6.5 6.5 6.5 6.5 6.5 6.5 6.5 6.5 6.5 6.5 6.5 6.5 6.5 6.8 7.1 7.3 7.5 7.7 7.9
7.1 9.2 9.1 8.0 8.7 7.8 6.8 6.5 6.5 6.5 6.5 6.5 6.5 6.5 6.5 6.5 6.5 6.5 6.5 6.5 6.5 6.5 6.5 6.5 6.5 6.5 6.5 6.5 6.5 6.5 6.5 6.5 6.5 6.5 6.5 6.5 6.5 6.5 6.5 6.5 6.7 6.9 7.2 7.4 7.8
7.9 8.8 9.0 7.1 8.6 8.2 6.6 6.5 6.5 6.6 6.5 6.5 6.5 6.5 6.5 6.5 6.5 6.5 6.5 6.5 6.5 6.5 6.5 6.5 6.5 6.5 6.5 6.7 6.6 6.5 6.5 6.5 6.5 6.5 6.5 6.5 6.5 6.5 6.5 6.5 6.5 6.5 6.9 7.3 7.8
7.7 7.2 9.3 7.9 8.0 7.0 6.5 6.5 6.5 7.4 7.1 6.5 6.5 6.5 6.5 6.5 6.5 6.5 6.5 6.5 6.5 6.5 6.5 6.5 6.5 6.5 6.5 6.5 6.5 6.5 6.5 6.5 6.5 6.5 6.5 6.5 6.5 6.5 6.5 6.5 6.5 6.5 7.1 7.3 7.6
7.2 6.5 8.6 8.1 6.6 6.8 6.5 6.5 6.6 6.7 7.5 6.5 6.5 6.5 6.5 6.5 6.5 6.5 6.5 6.5 6.8 6.6 6.5 6.5 6.5 6.5 6.5 6.5 6.5 6.5 6.5 6.5 6.5 6.5 6.5 6.5 6.5 6.5 6.5 6.5 6.7 6.9 7.2 7.6 7.8
6.8 7.3 8.1 8.8 6.5 6.5 6.5 6.5 6.6 6.5 6.5 6.5 6.5 6.5 6.5 6.5 6.5 6.5 6.5 6.6 6.4 6.5 6.5 6.5 6.5 6.5 6.5 6.5 6.5 6.5 6.5 6.5 6.5 6.5 6.5 6.5 6.5 6.5 6.5 6.5 7.0 7.0 7.3 7.6 7.8
6.9 6.5 6.6 7.2 8.1 6.5 6.5 6.5 6.5 7.4 6.5 6.8 6.5 6.6 6.5 6.5 6.5 6.5 6.5 6.5 6.7 6.6 3.3 5.7 6.5 6.5 6.5 6.5 6.5 6.5 6.5 6.5 6.5 6.5 6.5 6.5 6.5 6.5 6.5 6.5 6.6 7.1 7.4 7.6 7.7
6.9 6.7 7.2 6.5 6.6 6.5 6.5 6.5 6.5 6.5 6.9 7.1 6.5 6.5 6.5 6.5 6.5 6.5 6.5 6.5 6.6 5.4 6.4 6.5 6.5 6.5 6.5 6.5 6.5 6.5 6.5 6.5 6.5 6.5 6.5 6.5 6.5 6.5 6.5 6.5 6.7 7.3 7.4 7.4 7.6
6.6 7.0 7.8 7.1 7.3 6.5 6.5 6.5 6.5 6.5 6.5 6.5 6.5 6.5 6.5 6.5 6.5 6.5 6.5 6.5 6.5 6.5 6.5 6.5 6.5 6.5 6.5 6.5 6.5 6.5 6.5 6.5 6.5 6.5 6.5 6.5 6.5 6.5 6.9 7.2 7.0 7.1 7.3 7.4 7.5
6.9 8.8 7.3 6.8 6.5 6.5 6.5 6.5 6.5 6.5 6.8 7.1 6.6 6.5 6.5 6.5 6.9 7.0 7.1 6.9 6.6 6.5 6.5 6.5 6.5 6.5 6.5 6.5 6.5 6.5 6.5 6.5 6.5 6.5 6.5 6.5 6.5 6.5 6.5 6.5 6.8 7.2 7.3 7.4 7.7
Wind_Speed
13 15 14 12 13 14 15 15 17 16 17 18 20 23 24 24 28 12 8 2 3 10 5 6 10 10 10 13 9 7 10 7 0 6 4 5 5 4 3 10 4 3 9 12 14
14 14 16 15 14 15 15 15 16 18 16 17 19 23 24 23 18 13 6 9 6 12 10 10 10 9 12 9 5 9 11 4 7 10 10 9 9 6 6 12 9 9 9 10 11
15 15 16 17 16 15 17 16 16 16 17 17 19 23 26 24 10 4 11 10 8 12 11 9 8 10 15 5 6 4 9 10 8 9 9 6 14 6 8 8 29 4 10 10 9
14 16 16 17 19 17 17 19 17 15 15 16 18 22 31 7 4 7 7 10 10 12 9 10 10 10 14 8 3 8 9 8 9 6 6 2 5 9 7 6 6 11 11 9 10
13 13 17 17 18 19 18 18 19 16 15 15 16 20 13 8 14 10 9 13 12 11 11 10 10 12 13 4 3 9 8 8 5 2 4 1 4 1 6 10 15 12 12 9 9
14 15 14 17 17 18 19 20 19 17 16 15 15 17 9 14 4 2 7 13 12 13 12 10 7 6 11 9 8 7 10 4 4 2 7 10 8 10 7 11 10 9 12 11 11
16 16 15 15 17 19 19 21 20 18 15 15 11 7 9 18 5 5 8 12 11 13 10 8 6 9 6 12 3 11 12 8 6 7 11 4 19 11 12 10 8 11 11 11 14
14 16 15 16 18 19 21 21 22 18 13 10 7 8 8 2 8 8 12 9 8 11 8 4 7 10 12 8 12 13 14 5 7 9 5 16 13 14 15 13 10 9 11 8 11
15 15 16 15 18 20 21 24 24 15 6 5 6 7 8 4 9 15 14 13 13 10 8 6 9 13 10 13 14 13 5 7 16 8 14 5 14 15 12 11 10 9 11 12 15
16 15 16 16 17 19 22 27 15 6 8 8 7 7 8 7 8 13 17 12 12 12 11 11 10 13 14 13 13 9 12 12 6 13 9 9 13 11 12 9 12 12 12 13 17
17 15 13 14 15 17 18 10 6 7 11 14 2 11 2 5 4 11 16 15 13 14 16 16 12 14 17 14 16 9 10 10 5 5 4 11 8 5 13 10 11 12 13 16 16
17 15 12 15 15 16 10 7 5 4 11 16 21 21 18 5 5 15 18 16 17 17 17 12 13 15 4 8 8 10 10 12 2 1 7 10 13 3 14 12 13 13 15 14 17
14 15 10 12 14 8 12 11 1 6 8 15 21 24 19 20 14 17 20 21 19 19 18 15 3 6 7 9 11 10 13 3 8 7 10 12 13 9 9 12 12 14 14 16 16
12 14 10 7 7 11 11 9 5 4 7 13 9 9 18 14 15 21 24 23 15 20 18 14 12 7 11 11 12 12 12 4 9 11 6 14 2 19 14 13 14 14 15 17 19
15 13 14 13 11 8 8 3 6 4 7 2 14 3 8 18 10 25 23 24 23 19 14 16 14 12 13 12 10 10 1 6 10 13 14 11 8 13 10 14 18 17 16 16 19
16 16 16 9 9 16 8 3 6 6 15 6 8 10 12 21 22 15 25 25 21 19 16 17 13 14 16 12 6 8 6 10 10 11 9 13 10 14 8 13 13 19 19 19 18
19 18 16 16 12 15 13 5 7 13 3 13 9 11 15 15 22 19 27 26 22 21 21 19 15 15 9 8 11 10 13 9 9 6 10 7 5 3 15 5 2 2 9 20 20
21 19 15 19 21 10 5 7 17 15 29 4 3 12 15 15 23 20 23 24 27 24 14 16 18 20 13 16 14 15 16 7 5 7 6 5 6 4 9 3 4 6 5 7 15
20 11 12 13 23 5 4 14 24 28 12 28 5 11 14 15 15 23 26 26 28 25 22 16 19 13 19 14 18 18 18 13 4 8 5 7 7 6 6 3 4 3 3 7 11
10 12 16 18 22 9 5 15 26 25 25 13 27 12 14 16 18 23 24 25 26 28 20 13 10 12 12 10 16 13 13 10 9 6 9 11 10 1 6 5 4 2 2 3 2
10 6 8 20 11 7 13 20 31 28 21 24 18 24 14 14 20 20 16 12 26 25 21 18 13 11 12 14 16 13 9 9 6 8 6 7 5 5 3 2 4 2 1 2 2
7 8 11 17 9 8 15 35 30 27 31 20 22 19 19 11 17 21 22 20 10 22 25 22 11 10 16 18 22 15 19 17 10 12 7 7 12 13 7 9 3 8 5 2 3
6 6 11 16 12 16 28 42 31 30 27 25 19 16 13 14 13 17 17 14 8 20 21 20 12 12 14 10 11 12 13 11 13 9 12 9 7 4 0 5 6 9 9 5 6
6 8 6 13 18 26 32 38 36 31 32 26 21 19 17 13 14 5 18 10 6 12 11 15 16 19 14 18 15 18 18 17 16 9 12 13 17 11 12 12 12 11 8 5 6
9 7 9 14 20 32 33 22 34 36 30 26 25 26 24 19 16 15 7 9 2 7 5 14 22 21 22 20 15 20 20 21 21 18 17 15 16 13 12 9 10 6 2 4 6
6 9 14 14 25 30 27 32 32 33 31 31 27 26 22 20 15 14 8 3 6 12 13 17 16 21 23 21 18 18 18 19 19 18 19 18 19 13 12 12 10 10 5 8 6
5 15 13 18 27 23 25 33 39 31 32 32 30 21 22 19 7 6 3 4 3 7 11 17 13 17 16 17 18 17 18 20 18 18 16 17 15 15 14 12 9 11 7 7 8
Wind_Direction
341 342 324 301 310 314 317 321 323 327 327 330 327 327 325 321 313 257 250 70 143 168 232 178 212 218 230 248 252 261 253 269 207 293 74 70 322 153 320 285 141 38 38 80 120
330 329 327 330 314 310 312 316 321 322 326 326 328 325 321 325 304 267 137 126 140 180 211 209 211 210 229 243 225 251 285 12 4 350 333 356 339 21 244 230 212 128 103 118 129
323 325 321 317 316 308 309 310 313 319 324 325 329 325 320 323 284 221 122 149 165 199 258 243 261 221 255 251 216 250 278 353 332 26 344 329 339 321 285 332 332 105 132 128 124
320 324 323 319 311 312 306 305 307 315 319 324 329 327 319 292 317 86 144 167 185 220 242 224 219 226 252 230 183 273 294 318 340 316 286 159 220 297 26 23 55 90 115 97 107
310 317 320 320 315 310 311 305 306 310 315 322 325 327 325 262 263 100 146 161 185 211 221 216 237 244 252 248 246 247 304 325 9 219 276 317 254 127 60 81 89 90 98 105 100
305 303 311 315 319 312 310 304 302 307 310 315 317 314 269 273 14 149 152 168 198 206 215 238 272 325 296 274 281 358 302 307 322 159 252 270 163 230 115 117 109 130 127 143 132
300 302 308 313 317 315 306 303 299 297 302 306 301 286 259 251 325 198 190 195 208 211 226 235 282 271 327 254 244 278 270 196 235 241 267 328 339 113 132 123 113 123 142 145 138
286 299 302 310 313 313 308 302 296 292 296 296 263 251 260 293 272 230 199 208 217 215 254 291 269 275 271 300 260 245 249 202 285 215 261 109 284 129 143 143 140 127 138 121 134
277 289 297 303 309 310 308 302 289 284 260 224 230 246 260 95 223 221 210 216 193 208 227 264 259 258 259 245 243 216 271 259 237 216 209 205 238 121 144 165 135 133 136 137 141
268 275 288 296 305 311 310 292 275 241 221 222 255 254 233 240 196 210 204 217 201 207 219 230 233 242 224 243 248 245 203 227 134 267 223 267 345 133 163 165 150 148 141 143 159
261 269 278 296 299 312 311 281 230 197 222 241 264 247 247 195 189 207 194 195 222 205 219 202 228 233 245 225 269 316 285 261 284 62 289 273 269 180 156 171 168 160 163 164 175
268 259 272 291 297 312 283 266 346 346 293 266 252 253 255 270 237 210 176 195 201 216 220 223 234 253 340 287 252 252 250 260 228 81 280 264 279 152 150 182 180 183 174 182 176
269 256 261 282 304 280 246 257 1 305 265 279 236 237 224 221 223 210 190 205 201 219 224 233 289 101 225 206 231 231 255 334 274 267 249 269 258 180 174 171 190 181 192 179 189
241 260 245 275 286 241 239 244 231 233 271 260 202 238 219 205 220 223 193 207 223 225 227 234 237 206 215 228 220 228 220 309 295 274 283 306 179 295 175 191 193 194 194 190 188
234 231 238 221 332 258 52 164 187 216 279 8 164 84 201 201 169 197 200 212 221 215 223 223 231 212 234 225 204 261 205 263 283 273 274 232 251 174 206 191 193 201 200 199 189
242 215 225 231 248 266 316 315 174 231 242 220 165 196 203 210 230 179 193 211 223 228 223 236 209 214 228 226 218 251 238 231 246 252 263 241 265 184 203 209 208 185 197 203 194
234 215 212 223 232 233 265 246 209 228 185 228 205 195 210 193 217 211 189 198 206 214 214 218 213 220 245 217 206 215 227 234 223 226 237 283 274 193 237 98 292 242 206 196 200
220 212 215 231 229 280 309 219 223 225 229 81 234 198 215 205 204 190 193 199 210 206 203 211 216 212 182 233 204 212 227 227 198 229 235 275 244 315 47 34 287 280 269 238 208
207 219 218 220 232 214 271 207 221 221 204 225 202 235 213 211 211 199 208 204 202 209 221 205 227 197 207 213 241 203 219 245 262 266 285 275 217 242 146 202 238 252 250 219 216
202 227 221 210 213 209 227 238 238 233 239 231 236 224 222 207 210 202 209 204 208 210 218 222 233 181 180 228 228 268 204 214 235 234 243 248 255 154 213 174 146 226 73 87 141
198 220 213 180 202 217 218 229 230 247 240 224 235 236 239 215 212 214 222 210 209 202 212 226 218 181 167 205 203 210 223 223 233 247 259 260 271 354 358 182 284 209 262 330 19
190 210 149 160 193 200 219 220 232 230 248 232 243 251 237 229 221 228 219 207 223 213 202 219 209 205 211 213 230 217 214 215 227 234 225 265 275 309 259 263 287 249 184 301 312
194 181 171 172 196 195 218 229 224 232 245 229 225 244 234 234 239 223 221 244 200 225 200 213 222 220 216 178 220 230 234 233 223 249 257 225 258 311 187 241 199 229 261 224 237
177 172 182 197 214 201 209 228 217 231 241 238 219 233 236 232 235 255 217 206 246 244 203 212 212 224 222 206 205 212 237 229 232 223 240 256 271 267 205 218 235 244 210 255 246
183 190 183 184 201 214 213 216 216 209 222 243 234 231 229 230 235 218 240 165 199 229 247 223 217 225 232 246 229 223 215 225 232 232 241 253 259 247 256 275 298 41 30 226 239
176 192 181 185 202 212 217 217 223 216 206 217 237 233 222 230 234 226 180 179 171 204 227 211 224 229 237 237 248 254 254 244 243 230 244 248 257 267 283 273 261 278 238 237 201
188 215 186 216 194 210 215 217 219 214 217 212 221 237 237 234 129 113 65 81 342 305 217 220 221 228 238 237 240 238 243 254 249 251 239 248 261 265 270 269 261 252 216 219 175